Theta_e
319 321 320 320 321 320 316 314 315 317 318 318 318 321 322 322 321 318 318 322 317 315 321 320 317 319 318 317 315 312 312 315 317 312 306 304 303 301 301 300 299 299 298 297 297 297 297 297 297 298 298 300 301 302 303 305 305 306 309 310 311 312 314 315 316 317 318 319 319 320 320 320 319 320 320 320 320 320 320 320 320 321 321 322 322 323
318 320 320 322 321 319 317 314 313 313 314 314 316 318 320 320 320 319 319 319 315 315 322 319 315 319 319 316 314 313 315 315 313 311 305 303 303 301 301 300 299 299 298 297 296 296 296 296 296 297 297 298 299 299 301 302 303 305 306 307 308 309 311 312 312 314 315 315 316 317 317 317 317 316 316 316 315 315 316 316 316 317 318 319 319 319
317 319 319 319 317 316 317 316 314 315 315 316 317 317 320 321 321 322 322 319 314 315 321 320 315 318 319 315 313 313 315 310 307 307 305 303 302 301 300 299 299 299 298 297 296 295 295 295 296 296 296 296 297 298 299 301 302 303 304 305 306 307 308 309 310 311 311 311 313 313 313 313 312 311 311 311 310 310 311 310 310 311 312 313 314 315
319 321 318 314 313 314 317 317 316 316 317 319 319 318 321 321 320 324 325 321 317 315 317 319 317 318 316 314 313 309 308 306 304 304 304 303 302 301 300 299 299 298 298 297 296 295 295 295 295 295 295 295 296 297 298 299 300 301 302 303 304 305 305 306 307 308 308 309 310 310 309 310 309 308 308 308 307 306 306 304 304 305 305 306 307 309
321 321 317 314 315 316 317 317 317 317 319 324 323 320 320 321 321 323 323 321 321 321 318 316 320 324 320 317 315 308 306 305 303 303 302 302 301 301 300 299 299 298 298 297 297 295 294 294 294 294 295 295 295 295 296 297 297 299 300 301 302 303 304 304 305 306 307 307 307 307 307 307 306 305 305 304 304 303 303 302 302 302 302 302 302 304
319 318 316 318 318 318 319 320 321 321 321 325 327 323 320 320 321 321 320 319 321 326 322 315 324 333 328 322 317 309 308 307 304 304 303 302 301 300 300 299 299 298 297 296 296 295 294 293 294 294 294 294 294 294 295 295 296 297 298 299 300 301 302 303 303 304 305 305 305 305 304 303 302 301 300 300 301 302 302 302 302 302 302 301 301 301
319 317 317 320 321 321 321 321 323 322 321 323 324 324 322 319 319 321 320 320 324 327 321 316 324 330 325 324 321 311 309 308 304 304 303 302 301 300 300 300 298 298 297 296 295 293 293 293 293 293 293 293 293 293 294 295 295 296 297 297 298 299 299 300 301 302 303 303 302 302 301 300 299 298 298 299 300 300 301 301 301 301 302 301 301 301
320 318 318 319 321 323 321 322 323 322 323 326 323 323 326 322 320 323 321 321 324 322 321 323 322 322 320 324 322 312 310 310 306 305 304 302 301 300 300 299 298 298 297 297 296 294 292 293 292 292 292 292 293 293 293 294 294 294 295 296 296 297 297 298 299 300 300 300 300 300 299 299 298 298 298 298 299 299 300 300 300 300 300 300 301 301
319 318 321 320 320 322 322 323 323 320 323 326 320 319 325 323 322 327 324 322 322 316 322 328 319 318 323 325 321 313 312 313 308 305 304 302 301 300 300 299 298 298 297 296 296 294 292 292 292 292 292 292 292 293 293 293 293 294 294 295 296 296 296 296 297 298 298 298 298 298 297 297 297 297 297 298 298 298 299 299 298 299 299 299 299 299
317 315 321 322 321 323 324 323 322 321 320 320 319 320 325 324 324 328 325 323 323 318 322 325 320 320 325 327 325 317 315 316 309 304 303 302 302 301 300 300 299 298 298 296 294 293 293 292 292 292 292 292 292 292 292 293 293 293 294 295 295 294 295 295 296 296 296 296 296 296 296 295 295 295 296 296 296 296 296 296 296 297 297 297 298 298
317 312 315 320 320 322 322 317 316 319 317 315 320 326 330 328 326 328 326 323 322 322 323 324 321 319 323 330 328 319 317 316 310 305 303 302 302 301 300 300 299 298 298 297 294 292 292 292 292 291 291 291 291 291 292 292 292 292 292 293 293 293 293 294 294 295 295 295 295 294 294 294 293 293 294 293 293 293 293 293 293 294 294 295 295 295
318 313 315 318 317 318 319 315 315 318 318 318 324 326 327 329 328 326 326 324 322 324 328 324 318 315 321 328 323 315 314 312 310 307 303 302 302 301 301 300 299 298 298 297 296 293 292 292 291 291 291 290 290 290 290 290 290 290 290 291 291 291 291 292 293 293 293 293 293 292 292 291 291 291 291 290 290 289 289 289 289 290 290 291 291 292
321 320 318 316 314 316 320 319 317 318 320 320 322 323 323 324 325 324 324 324 323 324 323 320 316 316 320 321 316 312 311 309 309 307 302 301 301 300 300 300 299 299 298 298 297 294 292 291 291 291 290 290 290 290 289 289 288 288 288 289 289 288 288 289 289 290 290 289 289 289 288 288 288 288 288 287 287 286 286 286 286 286 286 287 287 287
324 324 318 314 314 316 319 319 318 320 319 317 318 322 323 322 323 326 324 320 322 323 319 316 316 319 320 317 312 308 305 304 306 305 302 301 300 299 300 300 299 299 298 298 297 295 292 291 292 291 290 290 289 289 289 288 288 288 287 287 287 286 286 287 287 287 287 286 286 286 286 286 286 286 285 285 285 285 285 285 285 285 285 285 285 285
325 326 321 318 318 317 315 315 322 325 317 314 319 320 322 325 327 327 325 323 325 327 320 314 316 324 324 315 306 303 302 301 303 302 301 300 299 299 299 299 299 299 298 297 297 294 292 292 292 291 290 290 289 289 289 289 288 288 287 287 287 286 286 286 286 286 285 285 285 285 285 285 285 285 285 285 285 285 285 285 285 285 285 285 285 285
320 325 325 318 314 314 314 315 322 325 318 315 317 318 318 323 325 322 323 325 326 326 322 319 322 324 317 307 302 303 302 300 301 300 300 300 299 299 299 299 299 299 298 297 297 294 292 292 292 291 290 289 288 288 288 288 288 288 288 287 287 287 286 286 286 286 286 285 285 285 285 285 285 285 285 285 285 285 285 285 285 285 285 285 285 285
318 324 324 315 311 314 315 316 318 321 321 316 314 319 320 319 321 322 323 320 318 321 322 321 322 318 310 307 305 304 302 300 300 300 299 299 299 299 300 300 299 299 298 298 297 294 292 292 292 290 289 288 288 288 288 288 288 288 288 287 287 287 287 287 287 286 286 286 286 286 286 286 286 286 286 286 286 286 286 286 285 285 285 285 286 285
320 325 324 316 315 315 312 314 314 315 319 319 318 322 319 316 321 325 325 321 318 321 321 319 320 318 315 313 307 303 304 302 300 300 299 299 300 300 300 299 299 299 299 298 296 292 291 292 292 290 289 288 288 288 287 288 287 287 287 287 287 287 287 287 287 287 286 286 286 286 286 286 286 286 286 286 286 286 286 286 286 286 286 286 286 286
319 322 323 316 316 316 312 314 317 313 313 318 321 319 317 320 324 322 322 324 322 321 322 322 320 318 318 317 312 309 309 304 301 300 300 300 299 299 299 299 299 299 298 298 296 293 292 292 292 291 290 289 288 288 287 287 287 287 287 287 287 287 287 287 287 287 287 286 286 286 286 286 286 286 286 286 286 286 286 286 286 286 286 286 286 286
319 320 323 316 313 316 315 317 322 318 313 314 316 315 317 321 323 321 319 322 323 320 321 321 318 320 323 319 317 316 309 303 302 301 300 299 298 298 299 298 298 298 297 297 297 294 292 292 293 292 291 291 290 289 288 287 287 287 287 287 287 287 286 287 287 287 287 287 286 286 286 286 286 286 286 286 286 285 285 285 285 285 285 285 285 285
318 318 322 319 314 315 317 319 322 321 315 314 316 316 317 316 319 321 318 318 322 320 321 319 316 322 322 312 313 315 308 303 303 302 300 299 298 298 298 298 298 297 296 295 296 294 292 292 293 292 292 292 291 290 289 288 287 286 286 286 286 286 286 286 286 286 286 286 286 286 285 285 285 285 285 285 285 285 285 285 284 284 284 284 284 284
317 319 323 321 318 319 322 319 317 318 319 320 320 319 320 318 318 320 318 318 318 318 320 318 316 321 318 308 309 312 307 303 302 302 301 300 300 299 299 298 297 296 296 296 294 293 291 292 292 292 292 292 292 291 290 289 288 287 287 286 286 286 286 286 286 286 286 286 286 285 285 285 285 285 285 285 285 285 285 284 284 284 283 283 283 283
318 322 323 321 320 321 319 313 312 315 318 319 318 318 320 319 318 318 318 318 317 317 320 318 317 319 313 307 308 309 307 304 302 302 303 300 299 299 298 298 297 296 296 295 293 292 291 292 293 293 293 292 292 291 290 289 288 288 287 287 286 286 286 286 286 286 286 286 286 286 286 285 285 285 285 285 284 284 284 284 283 283 283 283 282 282
318 321 321 320 322 321 315 311 313 315 314 315 316 316 317 317 318 318 317 318 319 319 319 317 317 317 312 308 307 305 305 304 301 302 304 302 299 298 298 297 296 296 295 294 293 291 291 292 292 292 293 292 291 291 290 289 289 288 288 287 287 286 286 286 286 286 286 286 286 286 286 286 285 285 285 284 284 284 284 283 283 282 282 282 282 282
319 320 320 320 321 321 317 314 315 316 315 315 316 315 314 313 314 314 312 314 316 316 316 316 316 315 311 306 304 303 305 306 303 301 302 303 300 298 298 298 297 296 295 295 294 292 291 291 291 292 293 292 291 290 290 289 289 288 288 287 287 286 286 286 286 286 286 286 286 286 286 286 285 285 284 284 284 283 283 283 282 282 282 281 281 281
318 319 319 320 320 320 320 318 316 316 314 312 312 312 311 311 311 311 311 313 314 313 314 315 315 313 309 305 305 305 307 308 307 302 301 302 301 299 299 298 297 297 296 296 296 294 292 290 290 292 292 292 291 290 290 289 289 289 288 287 287 287 287 287 287 287 287 287 287 287 286 286 285 285 285 284 284 283 283 282 282 282 281 281 281 281
317 317 317 318 318 317 318 316 313 313 314 313 312 311 311 309 308 309 311 312 312 311 310 311 312 311 309 307 307 307 308 309 309 307 304 303 302 300 299 298 297 296 295 295 295 294 292 290 289 291 292 291 290 290 290 289 289 288 288 287 287 287 287 287 287 287 287 287 287 287 286 286 286 285 285 284 284 283 282 282 281 281 280 280 280 280
316 314 314 315 315 314 314 313 309 310 313 314 313 313 312 310 306 307 309 310 311 310 308 308 308 308 308 307 306 307 308 308 308 308 307 304 302 301 300 298 298 295 293 294 294 294 294 291 288 288 290 290 290 289 289 289 288 288 288 288 288 287 288 288 288 288 287 287 287 287 286 286 285 285 285 284 284 283 282 281 281 280 280 280 279 279
316 314 312 312 313 312 309 308 307 307 309 310 310 311 311 309 306 305 306 307 307 307 306 305 305 305 305 304 303 305 305 305 305 305 305 303 301 301 300 299 297 295 293 293 293 293 294 291 287 287 289 289 289 289 289 289 289 288 288 288 288 288 288 288 288 288 288 287 287 286 286 286 285 285 284 284 283 282 281 280 280 280 279 279 278 278
313 314 310 309 312 310 306 306 306 305 306 307 306 306 306 305 304 304 304 304 304 304 303 303 303 303 302 301 302 303 304 303 304 303 303 303 303 302 300 298 296 294 292 293 293 293 292 289 287 287 288 289 289 289 289 289 289 289 289 289 289 289 288 288 288 288 287 287 287 286 286 285 285 284 284 283 282 281 280 280 279 279 278 278 278 277
310 311 308 306 310 309 304 303 305 304 304 304 303 303 302 301 302 302 302 302 302 302 302 301 302 302 301 301 302 303 303 302 302 303 304 305 304 302 300 298 296 294 293 293 293 293 290 287 286 287 288 288 289 289 289 289 289 289 289 289 289 288 288 288 287 287 287 286 286 285 285 284 284 283 282 281 280 280 279 279 278 277 277 277 277 277
309 309 305 304 310 309 301 299 302 302 302 302 301 301 299 299 300 300 300 301 301 301 300 300 301 300 299 301 301 302 301 300 301 302 302 301 300 300 302 300 296 295 296 295 294 294 293 288 286 287 287 288 289 289 288 289 289 288 288 288 288 287 287 287 287 286 286 285 285 284 284 283 283 281 280 279 279 278 278 277 277 276 276 275 275 275
307 308 306 305 309 305 299 299 302 303 303 302 300 300 298 298 298 298 298 299 299 299 299 299 299 299 300 301 301 301 301 300 300 299 297 297 296 297 300 300 298 298 298 298 297 296 292 289 287 288 289 289 289 288 288 288 288 288 287 287 287 286 286 286 286 285 285 284 283 283 282 281 280 279 278 278 277 277 276 275 275 275 274 274 273 273
304 306 306 304 306 304 299 299 301 301 301 301 299 300 300 298 298 298 297 298 298 299 300 300 299 299 301 301 301 302 301 297 295 294 294 294 294 294 296 297 299 299 297 298 297 292 289 289 289 289 289 289 288 288 288 288 287 287 286 286 286 286 285 285 285 284 283 282 281 280 279 278 278 277 276 276 275 275 275 274 274 273 272 272 272 272
304 305 304 302 305 303 298 299 302 301 301 299 298 300 300 298 298 298 297 298 298 298 299 299 299 300 301 302 300 299 295 292 292 292 292 293 293 293 294 294 295 296 296 296 294 289 287 289 289 289 289 288 288 287 287 287 286 286 286 285 285 285 284 284 283 282 281 280 279 278 277 276 276 275 275 274 274 273 273 272 272 271 271 271 271 270
303 304 304 302 302 301 298 300 302 300 298 298 297 297 296 296 296 296 297 297 297 297 298 298 298 298 299 299 295 292 291 290 291 293 294 294 294 292 293 294 294 294 293 293 291 288 288 289 289 289 289 287 287 287 286 286 285 285 285 285 284 283 283 282 281 279 278 277 276 275 275 274 274 273 273 273 272 272 271 270 270 270 270 269 269 268
302 302 304 303 301 301 300 300 300 299 298 298 297 295 295 296 298 299 298 298 298 297 296 298 299 297 295 293 290 291 292 291 291 292 293 294 295 293 290 290 292 291 289 289 290 289 289 290 289 289 288 286 286 286 285 284 284 284 283 283 282 281 280 279 278 277 276 275 274 273 273 272 272 272 272 271 270 270 269 268 268 268 268 267 267 266
300 302 303 303 301 300 299 299 299 298 298 297 296 296 296 297 300 301 298 298 300 298 296 298 299 295 291 290 290 291 292 291 292 293 292 293 295 294 290 287 287 288 288 289 290 289 289 289 288 287 286 285 284 284 283 283 282 282 282 281 280 279 278 277 276 274 274 273 272 272 272 271 271 271 270 269 268 268 268 267 267 267 266 265 265 265
298 299 300 301 300 298 298 299 298 297 297 297 298 297 295 295 299 300 297 298 301 298 294 295 296 293 292 292 291 291 292 292 293 293 292 293 293 292 291 288 287 288 290 289 289 289 288 287 286 285 285 284 283 282 282 281 281 281 281 280 279 278 277 275 274 273 272 271 271 271 271 271 270 270 269 268 267 267 267 267 267 266 265 264 264 264
298 299 299 299 299 298 297 297 297 296 297 297 297 296 293 294 297 298 297 298 299 295 292 294 296 295 293 291 290 291 293 293 293 293 293 292 290 287 288 289 288 288 289 288 288 288 287 286 285 284 283 283 282 281 281 281 280 280 279 278 277 276 275 274 273 272 271 271 270 271 270 270 269 268 267 266 266 266 266 266 266 265 264 263 263 263
297 298 298 298 298 297 297 297 296 296 297 297 296 295 294 294 296 296 297 299 299 295 291 293 297 295 292 290 290 291 292 292 292 293 292 291 289 288 287 288 288 288 287 287 288 287 286 284 284 283 282 282 281 280 280 279 278 278 277 276 275 274 273 273 272 271 270 270 270 270 270 269 268 267 266 266 266 266 266 265 265 264 263 263 263 262
295 297 297 298 298 296 297 297 296 296 298 298 295 293 292 293 295 297 298 299 300 298 293 291 294 293 290 289 290 290 291 291 290 291 291 291 292 290 287 286 286 286 286 286 286 286 285 283 282 281 281 280 279 279 278 277 277 276 276 275 274 273 272 271 271 270 270 270 270 270 269 268 266 266 265 266 266 265 265 265 264 263 263 262 262 262
295 296 295 296 297 296 296 297 296 296 296 295 293 292 292 295 299 300 298 296 296 298 295 291 291 290 289 289 289 289 290 290 289 290 291 291 291 289 285 284 285 285 285 285 285 284 284 282 281 280 279 278 278 277 277 276 276 275 275 274 273 272 271 270 269 269 269 269 269 269 268 266 265 265 265 266 265 264 264 264 263 262 262 262 262 262
296 297 296 295 296 296 296 296 296 296 295 293 294 295 294 295 298 300 298 295 294 295 294 292 290 288 287 289 290 288 289 289 289 290 290 289 289 287 285 283 284 285 285 285 284 284 283 281 280 279 278 277 276 276 276 275 274 274 273 272 271 271 270 269 268 268 268 268 268 268 267 265 265 265 265 265 265 264 263 263 263 262 262 262 261 261
296 296 296 297 296 294 295 297 297 296 295 293 294 296 296 296 296 296 296 296 296 295 292 291 291 289 287 288 289 289 289 289 288 289 289 289 289 288 285 284 284 285 285 284 283 282 281 280 279 278 276 275 275 274 274 273 273 272 272 271 270 270 269 268 268 267 267 267 267 267 266 265 265 265 265 265 264 263 262 262 262 262 262 261 261 261
295 293 292 294 295 293 292 295 295 293 293 293 292 294 295 295 295 295 295 295 295 295 292 291 292 290 288 287 288 288 289 289 288 288 288 288 288 286 284 283 284 284 283 282 281 280 279 279 278 276 275 274 273 273 272 272 271 271 271 270 270 269 268 267 267 266 266 267 266 265 264 264 265 265 265 264 263 262 262 262 262 261 261 261 261 261
294 292 290 292 294 293 292 293 292 292 292 292 292 292 293 293 292 293 293 293 293 293 292 292 292 291 289 288 288 288 289 288 288 288 287 287 288 286 282 281 282 283 282 282 281 279 278 277 276 275 274 273 272 271 271 271 271 270 270 269 269 268 267 266 266 265 266 266 265 264 264 263 264 264 264 263 262 262 262 262 262 261 261 261 261 261
293 292 292 292 292 292 293 293 291 291 292 291 291 291 291 291 291 290 290 291 291 291 291 290 290 290 290 289 287 288 288 288 288 288 287 287 287 285 281 280 281 281 281 281 280 278 277 276 275 274 273 272 271 270 270 270 270 269 269 268 267 266 266 266 265 264 265 264 264 263 263 263 263 263 262 262 262 262 261 262 262 261 261 261 262 262
293 292 293 293 292 291 292 292 291 290 290 290 290 290 289 290 291 290 289 289 289 290 290 288 287 287 288 289 288 288 288 288 288 288 287 287 286 284 281 281 282 281 279 279 278 277 276 275 274 273 272 271 270 270 269 270 270 269 268 267 266 265 265 265 264 263 263 263 263 263 263 262 262 262 262 261 261 261 261 262 262 261 262 263 263 263
292 292 291 292 292 292 291 291 291 290 291 291 291 290 290 289 289 289 289 289 289 289 289 289 288 286 285 286 287 287 288 288 287 286 287 286 285 283 282 281 281 279 278 277 277 275 275 274 273 272 271 270 269 268 269 269 269 268 267 266 265 265 265 264 263 262 263 263 262 262 262 262 262 262 261 261 261 261 261 262 262 263 263 263 264 265
291 291 291 291 291 291 291 291 291 290 291 291 291 291 291 290 289 289 289 289 289 289 288 289 289 288 287 285 284 285 287 288 285 284 286 285 283 282 283 282 280 278 276 276 275 274 273 272 271 271 270 269 268 268 268 269 269 268 266 266 265 264 264 263 262 262 262 262 262 262 262 262 261 261 261 260 260 260 260 261 262 265 265 264 264 265
Wind_Speed
3 4 2 4 6 8 10 11 11 8 3 2 2 2 4 5 6 5 5 6 2 1 7 6 5 8 10 10 7 6 6 5 5 7 6 5 5 5 6 6 6 6 5 9 14 18 21 22 24 24 25 26 27 28 28 28 28 27 26 26 26 23 20 19 19 17 15 14 12 12 13 13 13 12 11 12 11 11 10 9 8 8 6 4 3 4
4 4 7 10 11 9 7 8 8 5 2 2 3 4 5 5 7 6 5 7 1 2 6 3 2 8 10 9 6 6 6 6 4 6 6 6 6 4 5 6 5 5 4 8 13 17 21 22 23 25 27 27 28 28 29 29 28 27 27 26 25 23 21 21 21 19 19 19 16 15 15 14 13 13 13 14 14 13 11 10 10 9 7 6 6 6
2 4 12 13 8 2 1 5 6 5 5 4 2 2 5 4 4 6 5 5 2 2 4 3 2 8 11 6 5 6 4 5 5 6 6 5 6 5 5 5 5 5 5 7 10 15 19 19 22 25 26 27 27 28 29 29 28 28 27 26 25 23 22 21 19 19 20 19 17 17 16 15 15 16 15 15 15 14 12 12 11 9 8 6 5 5
4 7 13 11 5 2 3 3 6 3 3 3 3 3 5 4 1 4 5 5 4 1 2 3 3 7 9 3 6 6 5 6 7 8 7 5 6 5 5 5 5 5 6 6 7 11 15 18 21 23 24 26 27 29 29 28 28 28 27 26 25 24 23 21 19 19 19 18 17 17 16 15 15 16 14 14 15 14 14 14 13 12 11 9 7 6
7 8 5 4 5 6 7 5 5 4 3 4 5 6 5 5 6 6 4 4 5 4 2 2 5 5 7 4 2 3 4 7 6 7 8 6 6 5 5 5 5 5 5 5 6 8 13 17 20 22 23 25 28 28 28 28 28 27 27 26 25 25 24 22 20 19 17 17 17 16 16 15 15 16 16 16 17 16 16 16 15 15 14 13 11 9
9 6 3 5 4 6 6 6 5 7 3 4 5 9 9 7 7 5 2 5 4 5 3 3 3 5 4 3 2 4 3 5 5 5 6 5 5 5 5 5 5 5 4 5 6 7 11 15 18 22 24 25 27 27 27 28 28 27 27 26 25 25 24 23 22 19 17 18 18 18 19 19 20 20 21 20 19 17 16 15 14 14 14 14 15 14
6 5 4 5 5 6 6 6 5 7 5 3 5 7 8 5 4 4 1 2 0 4 4 3 1 6 4 3 4 5 4 4 4 5 5 4 4 4 4 4 4 4 5 5 6 8 10 14 17 21 23 24 24 24 26 28 28 28 28 27 27 27 26 24 22 20 20 21 21 22 23 22 22 21 20 20 19 18 16 14 13 13 12 11 12 12
5 5 4 6 6 5 5 5 6 8 6 3 4 4 5 5 4 4 5 4 3 3 5 4 2 4 5 4 5 6 7 3 3 4 4 3 3 4 4 3 3 4 4 4 5 7 10 14 17 19 21 22 22 23 26 28 29 29 29 29 28 28 27 25 23 22 22 23 23 22 22 22 21 20 19 18 17 16 15 15 16 15 14 12 11 10
3 5 6 7 6 5 6 5 7 9 5 6 4 5 6 5 5 4 6 2 1 2 4 4 1 3 5 6 3 5 6 4 5 5 4 4 4 4 4 3 3 4 4 4 5 6 10 14 16 18 20 21 23 24 26 27 27 28 28 28 29 29 28 26 25 24 24 24 23 23 23 23 22 20 19 17 16 16 15 16 17 16 15 14 13 12
0 4 6 7 6 6 5 2 5 8 4 4 4 6 5 6 5 5 5 3 3 2 5 5 3 2 5 5 3 2 3 6 5 5 5 5 4 5 4 3 3 4 4 4 6 8 11 14 16 18 21 22 23 23 24 25 26 27 27 28 29 29 28 27 26 26 26 26 26 26 26 25 24 22 21 20 21 20 19 19 20 18 17 16 14 14
2 2 2 4 4 5 5 3 1 4 4 5 6 6 6 6 5 4 3 4 3 4 6 8 9 6 4 5 3 3 3 5 7 6 6 6 5 5 4 3 4 3 3 4 6 8 12 15 17 19 21 22 22 23 24 25 26 26 27 27 29 28 27 27 27 27 28 28 29 29 29 28 28 27 26 27 27 26 25 26 25 24 22 21 19 18
5 2 2 2 2 4 6 4 3 3 4 6 5 5 3 4 4 4 4 4 1 6 6 6 7 6 5 5 2 2 5 2 7 9 11 10 7 6 5 4 4 3 4 4 4 6 10 13 16 18 19 20 22 23 24 25 25 26 26 27 28 28 27 27 27 28 28 29 29 29 29 29 29 28 29 29 29 29 29 29 28 27 27 26 25 24
4 4 3 3 1 4 6 4 3 5 5 5 5 5 3 2 3 3 3 0 3 7 5 4 5 2 6 5 3 5 6 6 4 8 13 13 10 7 6 5 4 4 4 4 3 4 6 10 12 15 17 19 20 21 22 23 24 25 26 27 29 28 27 27 27 28 29 29 29 29 29 29 28 28 28 28 28 28 28 28 28 29 29 28 28 28
3 5 2 1 3 2 7 5 2 1 2 4 5 5 4 2 1 3 4 2 4 6 3 3 4 1 5 3 4 5 6 7 3 5 9 10 10 8 6 5 4 4 4 3 3 3 5 9 11 13 15 17 18 18 19 21 22 24 25 26 28 27 26 27 27 28 29 29 29 29 29 28 27 28 27 27 26 26 26 26 27 27 27 27 27 27
2 5 2 4 2 3 7 6 5 5 4 4 4 5 5 5 4 4 4 3 4 5 3 1 3 3 3 2 3 4 5 5 4 7 8 7 7 6 5 5 4 4 4 3 4 4 6 9 11 13 14 15 16 17 18 19 19 21 22 23 25 25 24 25 26 26 27 27 27 27 27 27 26 25 25 24 24 23 23 23 24 24 24 24 23 23
3 5 6 2 1 5 7 4 5 7 2 1 3 4 3 5 5 3 3 5 4 2 3 2 3 3 3 1 3 3 4 5 6 7 8 7 5 5 5 4 4 4 4 4 4 4 6 9 11 12 13 14 15 16 16 16 16 17 19 20 22 21 21 22 22 23 23 24 25 25 24 24 23 22 22 22 22 22 22 22 22 23 23 22 22 21
2 4 5 2 0 5 6 4 4 4 2 1 2 3 4 4 6 2 3 1 3 1 4 2 2 3 1 1 2 3 5 5 5 5 7 6 6 6 5 5 5 5 5 4 4 5 7 9 10 11 13 14 14 14 14 13 13 14 16 18 19 18 17 18 18 19 20 21 21 22 21 21 21 21 21 21 21 21 21 22 23 23 23 23 23 23
4 3 5 2 3 4 3 3 3 2 4 5 3 5 3 2 4 3 1 2 1 3 4 1 3 4 2 2 1 2 2 3 3 4 5 5 6 6 6 6 5 5 5 5 5 6 8 10 11 11 12 12 12 12 12 12 12 13 14 15 16 16 15 15 15 17 18 18 19 18 19 19 19 19 19 19 20 21 21 22 23 23 24 24 24 25
4 2 6 1 3 2 2 3 2 3 2 5 4 4 3 2 1 1 2 2 2 3 3 4 4 3 3 4 2 4 7 7 5 4 5 7 8 7 7 6 5 5 5 5 5 5 8 10 11 11 11 11 11 11 11 11 11 11 12 13 14 14 14 13 13 14 15 16 16 15 16 17 17 18 19 19 19 20 21 21 22 23 23 24 24 25
3 2 4 2 2 1 3 3 3 3 1 2 1 1 1 2 3 2 2 3 2 3 3 4 4 3 5 4 5 7 9 9 8 6 8 9 8 7 6 6 6 6 6 6 6 5 8 11 12 12 13 12 11 11 10 10 10 11 11 12 13 13 13 13 12 12 11 11 12 12 12 14 15 15 16 17 17 19 20 21 22 23 23 23 24 24
2 3 3 2 1 1 1 2 5 6 3 2 2 2 1 1 1 1 1 2 3 3 3 3 4 5 4 3 5 6 6 10 10 9 8 7 6 6 6 6 7 7 7 6 6 6 9 13 14 13 13 12 12 11 10 10 9 10 11 11 13 13 13 13 12 12 10 9 9 10 10 10 12 13 14 15 16 17 19 19 20 22 22 23 23 23
1 2 2 1 0 2 4 3 3 5 5 4 4 4 4 3 2 2 4 2 2 3 3 3 6 6 3 2 3 4 5 9 10 8 7 7 8 8 8 9 9 8 7 6 6 7 10 13 15 14 13 12 12 12 12 10 9 9 9 9 10 11 12 11 11 11 10 10 9 10 10 9 11 12 13 15 16 17 18 19 20 20 21 22 22 23
2 3 1 3 3 5 3 1 1 2 4 4 2 2 3 3 4 4 6 3 2 1 1 1 5 5 3 3 3 4 6 8 8 8 7 7 9 10 10 10 9 7 7 6 7 9 12 15 16 15 14 13 13 13 13 11 10 8 7 7 7 8 9 9 9 10 10 10 9 10 10 10 11 13 14 15 17 18 19 19 20 20 21 22 23 24
2 3 2 3 3 3 2 3 4 3 3 2 1 1 3 3 3 4 4 3 2 2 1 1 5 4 2 2 2 2 3 6 6 7 8 8 8 9 10 9 8 7 7 6 6 9 12 15 15 15 14 13 13 13 13 12 10 9 7 6 6 6 6 7 7 7 7 7 7 8 9 11 12 14 16 17 18 20 20 21 22 22 22 23 24 25
1 2 2 1 3 4 3 2 3 4 1 2 2 1 1 3 5 3 1 2 1 4 4 5 7 5 1 2 2 1 2 4 5 6 6 6 7 8 8 8 8 7 6 5 6 7 9 11 13 14 14 14 15 14 13 12 11 10 9 7 6 5 5 5 4 4 4 4 6 8 10 12 14 16 18 19 21 22 23 24 24 24 25 25 26 27
3 3 3 4 6 8 6 4 3 2 1 0 1 2 1 3 5 3 1 2 2 3 4 5 7 3 1 1 1 2 2 3 5 5 4 5 6 6 7 7 6 6 6 7 6 6 6 8 11 14 15 17 16 15 14 13 12 11 9 7 6 5 4 4 2 1 3 6 8 10 12 14 16 18 20 22 24 25 25 26 26 27 27 28 28 30
2 2 4 6 9 8 5 5 4 3 3 2 2 3 4 3 4 4 3 3 3 2 3 7 7 3 4 5 5 4 5 5 6 5 5 7 7 7 6 5 5 5 5 6 6 5 6 7 11 15 17 18 17 15 14 14 13 13 11 9 8 7 4 3 2 3 6 8 9 11 12 14 16 18 21 23 26 27 28 27 28 28 29 29 30 32
3 2 4 6 7 5 3 4 3 3 4 4 4 6 8 6 5 7 4 5 4 2 6 10 7 4 8 10 6 6 6 6 6 6 7 8 7 6 4 4 5 6 5 5 6 7 7 7 10 15 18 18 16 15 15 15 14 14 12 10 9 7 5 5 5 6 7 8 9 11 13 15 17 19 22 25 28 29 30 29 30 30 31 31 31 32
4 3 3 4 4 2 4 4 3 3 3 4 6 8 11 10 5 7 6 9 7 6 10 10 6 6 10 9 5 6 7 7 7 7 6 5 5 4 5 6 6 6 6 7 7 8 8 8 10 14 17 17 17 17 17 16 16 14 13 11 9 8 8 7 7 7 7 8 10 12 14 16 19 21 25 27 29 30 31 31 32 33 34 35 35 35
3 2 2 3 3 2 2 3 4 4 3 4 7 11 11 9 5 7 10 12 9 9 11 11 10 12 11 8 7 6 6 6 5 3 3 4 5 5 6 6 7 7 8 8 8 8 8 8 12 15 16 17 19 20 19 18 17 16 14 13 11 11 10 9 8 7 7 8 10 13 15 18 21 24 27 29 30 31 31 32 34 36 37 38 39 39
1 1 1 3 1 4 1 2 3 2 3 5 9 12 9 3 4 10 12 9 5 8 11 10 9 12 11 6 5 4 2 3 4 4 5 5 5 6 6 7 7 7 8 8 8 7 7 8 12 14 16 19 21 21 21 20 18 17 15 14 12 11 9 8 7 6 6 8 11 13 16 20 23 26 28 29 30 31 32 33 35 36 37 39 39 40
1 1 1 4 2 4 2 2 2 2 3 5 12 14 10 5 7 10 7 6 8 9 9 7 6 9 10 4 1 2 3 5 5 6 4 3 4 5 6 7 6 7 7 7 7 7 6 7 10 13 16 19 20 19 18 17 15 13 11 10 7 6 5 5 5 5 7 9 12 15 18 22 25 26 27 28 29 30 32 34 35 36 37 37 37 38
3 4 1 3 3 4 4 2 2 5 5 7 11 10 10 10 11 10 7 8 10 7 5 6 7 8 7 3 1 4 6 6 5 5 3 3 4 5 5 6 6 7 7 7 7 6 7 9 10 12 12 13 13 13 12 11 9 6 5 5 5 4 3 3 5 7 10 12 15 18 21 23 24 25 26 27 29 31 32 33 35 35 35 36 36 36
4 5 3 3 3 3 5 1 4 1 6 8 4 4 8 10 11 10 10 11 9 7 6 6 6 5 4 5 7 9 7 6 5 4 4 4 4 4 5 5 6 6 6 6 6 6 8 9 9 8 7 6 6 7 7 7 7 7 6 5 4 3 4 6 8 10 13 15 17 19 21 22 23 24 26 27 29 30 31 32 33 34 34 35 36 36
5 5 3 2 3 2 2 3 1 8 9 5 3 1 5 7 7 7 8 9 9 8 8 7 7 6 7 7 8 6 4 4 4 4 5 5 5 5 5 5 6 5 5 5 5 7 10 11 10 10 9 9 10 10 10 10 9 8 6 5 4 5 6 9 11 13 15 16 17 18 19 21 22 24 26 27 28 29 30 31 32 33 33 34 35 35
6 4 3 2 2 2 2 4 6 7 5 7 7 3 2 2 2 1 5 9 10 9 8 8 9 9 8 6 4 3 4 4 2 3 5 5 5 6 5 6 6 6 7 8 9 12 14 14 14 14 14 14 14 13 12 11 10 8 7 5 6 7 8 10 12 13 14 15 15 17 18 20 22 24 25 26 27 28 29 30 30 31 32 34 35 34
6 4 1 2 3 2 3 5 5 4 8 13 10 3 3 3 5 5 4 8 7 6 7 7 9 8 5 4 3 3 3 3 1 4 6 6 6 6 8 8 8 9 10 11 12 13 13 13 14 15 16 15 14 13 11 10 9 7 6 5 6 8 9 10 11 12 13 14 14 16 18 20 22 23 24 25 27 28 28 29 30 30 30 32 34 34
4 4 4 4 3 2 3 4 4 3 7 11 6 2 2 4 6 7 3 5 6 5 7 8 7 6 5 4 5 3 4 2 3 5 6 7 6 6 7 10 11 11 11 11 11 12 12 13 15 15 16 15 14 11 10 8 7 5 5 5 7 8 9 11 11 12 13 14 15 18 19 20 21 22 24 24 25 27 28 28 30 30 29 30 33 35
1 1 4 4 2 2 3 5 6 6 8 8 6 4 2 4 6 6 3 5 6 5 7 6 6 7 7 7 6 5 4 3 5 5 5 7 7 6 6 8 11 10 9 10 13 14 15 16 15 15 15 14 12 10 8 7 6 5 6 7 8 9 10 11 11 12 14 15 17 18 18 19 20 21 22 24 25 26 27 28 29 30 30 30 32 34
2 2 3 4 5 6 6 5 4 5 6 5 5 5 3 3 6 8 1 7 6 5 7 8 8 9 9 7 6 6 6 6 6 6 6 7 7 7 7 8 9 8 8 10 13 15 16 17 17 16 15 13 11 10 8 7 6 6 7 8 8 9 10 11 12 13 15 16 17 18 17 18 19 20 21 23 25 25 26 27 29 30 31 32 32 33
1 1 3 6 8 8 8 6 4 4 5 5 5 6 5 4 6 3 6 7 4 6 7 9 10 10 9 8 6 6 7 8 7 5 5 6 5 6 9 11 10 8 9 12 15 16 18 18 17 16 15 13 11 9 8 7 6 6 7 8 9 9 10 11 13 15 16 17 17 17 18 18 18 19 21 22 24 26 26 27 28 30 31 32 33 33
2 1 2 4 6 6 6 5 4 5 5 6 5 3 4 4 2 5 7 4 6 8 8 8 9 9 9 10 9 8 8 9 6 4 4 6 6 6 9 10 8 7 8 12 16 19 20 18 17 16 14 12 11 9 8 7 7 7 8 9 9 10 11 12 14 15 15 16 16 17 18 18 18 19 21 21 22 25 27 27 28 29 31 32 33 33
6 4 2 4 4 3 3 4 4 6 5 10 9 1 1 4 6 6 4 3 5 7 7 8 9 8 8 9 10 9 9 8 6 6 6 6 6 8 10 11 12 12 14 16 18 21 21 19 18 17 14 12 11 10 9 8 7 8 8 9 9 10 11 12 13 14 15 16 17 17 18 18 19 19 20 21 22 24 26 28 29 29 30 31 31 32
4 5 4 4 3 4 5 6 5 4 3 9 10 5 6 8 7 4 4 4 4 5 6 6 8 9 9 10 10 10 9 8 7 7 7 7 7 8 10 12 14 16 17 19 21 22 22 21 19 17 15 13 11 10 9 8 8 8 8 9 9 10 12 12 13 14 15 16 17 18 18 18 19 20 20 21 22 23 26 28 29 29 29 29 29 30
6 6 5 4 3 4 5 6 5 2 3 7 8 7 8 10 7 6 6 5 4 5 5 5 7 9 9 10 10 9 8 9 9 8 8 8 8 9 11 13 15 18 19 20 21 22 22 21 19 17 15 13 12 10 10 8 8 8 8 9 10 11 12 12 13 14 15 16 17 18 19 19 20 21 21 21 22 23 25 28 29 29 29 28 28 28
5 4 3 2 1 2 2 3 3 2 2 6 9 7 7 8 6 6 6 5 6 6 6 6 8 9 9 10 9 8 8 9 9 9 9 8 8 10 12 13 14 17 19 20 21 22 21 19 17 16 14 13 12 10 9 8 8 8 9 9 10 10 11 12 13 14 15 16 17 18 19 20 21 22 22 22 22 23 25 27 28 29 29 28 28 27
3 3 3 2 3 2 2 3 5 5 5 7 9 9 8 7 6 5 6 6 7 7 7 8 9 9 9 9 10 10 11 10 9 9 8 8 8 9 10 11 13 17 20 22 24 23 21 19 17 16 14 13 12 10 9 8 7 8 9 9 9 10 11 12 13 14 16 16 18 18 19 20 22 23 23 23 23 24 25 26 27 28 28 28 28 27
2 3 3 4 5 4 4 6 7 6 5 5 7 8 7 8 8 6 6 7 7 7 7 8 8 8 7 8 10 11 12 11 10 10 9 8 8 8 10 13 16 18 20 22 23 23 21 19 17 15 14 12 10 9 9 7 7 8 9 9 8 9 10 11 12 14 16 17 18 19 19 19 21 23 23 24 24 24 26 27 28 28 28 28 28 28
1 1 3 4 4 2 4 7 5 2 5 8 10 10 8 8 8 7 7 8 8 8 8 8 8 8 9 9 10 10 11 12 11 11 11 9 7 8 12 15 17 19 21 21 22 22 20 18 15 13 12 10 9 9 8 7 7 8 9 8 8 8 10 11 12 14 16 17 17 18 19 20 21 22 23 24 25 25 26 27 27 28 29 29 28 27
2 4 3 4 3 4 6 8 6 3 5 10 12 11 10 9 8 8 8 8 8 10 10 9 9 10 11 12 12 10 10 12 11 11 10 9 9 12 15 16 16 18 20 20 20 19 17 14 13 11 10 9 8 8 8 7 7 7 8 7 7 8 10 11 13 14 16 17 18 19 20 21 21 22 22 23 24 26 27 28 27 26 26 28 28 27
6 9 7 5 6 8 9 9 8 7 8 10 10 9 9 7 7 9 10 11 11 11 10 10 11 11 10 12 15 13 11 11 12 12 9 9 13 16 16 16 17 18 20 20 19 17 15 13 11 10 9 8 8 8 8 8 7 7 7 7 7 8 9 10 12 15 16 17 18 19 20 21 21 22 22 22 23 24 26 29 31 30 27 25 25 26
Wind_Direction
90 105 196 214 209 213 214 203 206 222 203 196 233 229 235 246 268 269 269 271 228 227 269 256 249 262 271 276 291 318 344 22 73 88 81 79 72 68 72 63 59 56 39 34 37 40 42 45 49 50 53 56 58 59 62 65 66 66 68 68 66 64 68 70 69 73 76 77 79 80 81 79 73 69 66 63 56 51 48 47 47 47 42 18 329 286
80 142 223 223 215 220 213 197 210 242 259 247 238 266 272 243 258 267 261 281 277 193 266 303 291 272 273 279 313 342 360 16 56 101 96 89 83 70 71 64 57 52 34 37 37 38 41 45 50 52 53 54 54 55 58 62 64 67 69 69 67 67 69 68 68 72 74 74 76 79 80 80 77 72 68 65 60 55 53 50 48 50 50 40 26 12
114 206 238 232 222 243 81 156 183 218 219 224 213 228 260 243 270 285 281 311 350 183 265 337 339 276 278 289 5 11 36 38 35 79 86 89 89 70 64 61 53 50 35 33 31 32 36 40 48 53 53 53 54 56 59 62 64 66 67 68 69 70 71 71 73 75 76 78 80 80 80 79 77 72 72 73 68 63 58 53 47 43 38 29 21 9
175 235 243 233 209 226 262 187 157 184 216 215 194 187 244 241 221 274 288 324 343 258 260 325 318 278 279 291 59 32 60 73 51 64 65 66 81 72 66 59 52 56 42 36 30 25 30 34 41 49 52 54 55 56 58 60 62 62 64 66 69 71 73 75 78 81 85 88 89 88 86 86 84 80 82 83 74 65 58 54 48 41 35 25 15 1
213 235 232 181 162 188 237 247 167 173 243 243 211 203 230 235 214 228 281 328 334 337 354 357 322 287 274 269 99 63 70 78 64 70 67 55 66 68 67 58 46 51 46 41 36 23 30 34 35 42 51 56 57 56 56 59 62 63 64 67 69 71 73 75 79 85 93 95 94 94 91 87 81 73 71 68 62 60 58 56 51 46 42 37 32 23
238 237 113 118 158 166 205 248 200 169 211 278 234 210 219 232 231 235 347 12 2 331 331 24 324 287 296 298 184 155 100 75 65 69 71 58 55 59 58 53 42 45 47 46 43 35 38 42 41 41 44 51 55 57 60 63 66 67 68 70 71 71 72 73 76 81 88 89 87 85 80 72 66 59 54 54 54 57 58 58 56 52 48 45 43 38
245 233 145 167 183 161 190 247 228 167 152 271 250 209 212 221 226 224 143 79 166 261 296 48 172 271 313 327 223 177 132 97 86 73 75 68 57 66 59 44 34 33 39 44 43 41 44 48 48 45 43 46 51 57 64 67 68 69 70 71 71 71 71 71 75 78 82 82 80 80 77 72 68 61 56 56 60 61 62 62 60 57 53 47 43 39
218 208 181 187 188 187 213 251 225 167 137 236 248 150 147 160 181 193 150 158 217 254 317 10 115 268 292 274 241 157 133 120 111 100 96 103 86 83 78 60 49 31 29 39 44 41 43 49 53 52 50 51 55 59 64 67 68 69 69 71 73 72 72 72 74 77 78 79 79 78 77 73 70 66 62 61 62 63 64 64 60 58 58 52 44 35
194 191 199 183 180 204 221 229 191 158 151 239 221 118 116 133 144 121 108 130 322 11 302 299 116 274 270 265 275 128 153 212 177 160 156 145 134 116 104 84 62 41 28 34 46 46 44 49 56 60 61 60 62 64 66 68 70 71 71 73 74 73 73 73 75 77 77 78 78 76 74 71 68 66 65 64 62 60 59 58 55 54 55 52 48 40
131 211 198 157 166 206 205 222 183 163 183 215 142 91 65 69 78 73 91 98 25 349 247 227 178 234 269 277 299 114 195 228 186 170 172 159 154 140 125 108 79 56 39 37 47 53 54 57 60 66 69 67 67 69 71 72 72 73 73 74 74 72 73 74 75 76 76 76 76 74 71 69 66 64 63 62 59 56 55 55 52 49 48 45 42 36
329 305 188 147 178 190 147 97 157 159 151 131 93 56 33 31 42 46 62 77 46 282 245 211 190 194 263 284 239 178 236 204 158 159 175 167 161 152 142 133 114 82 58 48 48 55 62 67 67 69 69 68 70 72 73 73 73 73 73 74 75 73 74 75 75 76 75 74 73 71 70 67 63 60 59 56 53 51 52 52 51 50 49 46 42 38
336 341 268 246 184 132 105 81 26 27 80 99 86 69 49 346 10 24 2 44 132 257 260 218 183 173 230 267 257 277 300 231 166 171 173 168 165 160 152 145 130 98 74 60 52 57 65 68 67 67 66 67 69 71 71 72 74 75 75 76 76 73 74 75 75 75 74 73 72 71 70 67 64 61 59 56 52 49 49 48 48 49 48 46 44 41
316 248 267 302 229 137 111 85 18 6 41 81 97 95 90 322 353 358 304 235 219 254 256 173 137 159 234 252 325 329 321 306 243 180 167 164 160 158 154 147 128 101 89 78 69 62 67 68 66 66 66 67 68 69 73 75 76 77 77 78 77 73 73 76 76 76 75 74 73 73 72 70 67 65 63 60 56 53 50 48 47 46 44 42 40 38
300 292 307 339 281 180 141 147 191 245 127 135 143 132 131 152 191 252 256 258 258 267 264 158 137 273 261 273 327 319 311 305 296 140 146 149 146 148 147 142 125 111 112 109 101 84 76 76 74 74 73 73 73 74 78 80 81 82 81 81 80 77 76 78 78 78 77 76 75 74 73 70 68 66 63 61 58 55 52 50 48 46 44 41 38 36
200 297 245 176 236 192 170 180 166 142 150 173 155 136 151 160 170 211 217 206 242 278 297 206 163 199 219 252 297 304 322 341 50 99 112 113 120 126 121 122 123 126 135 128 111 98 91 88 84 82 82 82 84 84 85 85 86 88 87 87 86 82 79 79 79 78 77 76 74 73 71 69 66 64 62 58 55 52 49 47 45 44 41 39 36 33
161 256 253 231 203 168 178 194 132 112 118 214 119 109 173 185 166 195 209 181 184 288 296 227 209 211 185 240 313 349 18 35 60 88 104 106 111 114 116 132 148 157 160 145 126 112 103 98 94 92 91 89 88 87 87 88 91 94 94 93 90 86 84 82 80 78 75 73 71 68 66 63 61 58 55 51 47 45 42 39 38 36 34 32 30 27
140 268 280 354 24 183 185 186 141 136 180 159 125 179 218 179 137 135 263 184 106 232 261 210 234 283 316 289 329 39 55 62 71 94 110 118 126 129 147 172 178 181 178 167 158 142 121 111 106 102 95 91 90 92 95 98 100 102 100 99 97 94 91 87 83 80 75 72 68 64 60 56 52 49 45 41 38 34 33 31 29 27 25 23 21 19
152 265 276 166 191 238 205 153 78 55 147 130 170 213 204 120 98 104 235 321 41 229 268 270 233 262 266 254 309 71 114 144 144 130 124 136 151 161 182 190 190 192 186 182 172 152 138 128 118 109 102 100 105 109 111 110 108 105 102 102 101 97 91 85 81 78 73 69 65 61 57 51 46 42 38 34 30 26 25 23 21 19 17 15 13 12
131 238 279 204 176 272 5 89 49 345 119 136 197 202 129 148 225 111 167 220 230 229 272 288 265 252 215 215 208 197 199 188 176 164 162 175 181 185 194 198 202 200 192 184 175 164 153 143 133 128 130 133 132 129 124 119 115 111 108 107 103 98 92 87 82 78 73 67 62 58 54 47 42 38 32 28 24 20 18 16 14 12 10 8 6 4
118 183 274 297 189 187 41 85 182 256 5 87 227 250 93 177 186 164 175 177 190 220 255 278 285 269 236 204 185 205 199 175 172 188 195 194 192 195 195 195 203 201 194 186 181 180 165 157 157 157 161 162 155 146 136 129 125 120 117 115 111 107 103 97 91 88 84 77 67 62 58 48 40 36 29 25 20 15 13 10 7 5 4 2 1 359
117 176 238 300 330 138 153 199 188 186 170 136 192 211 230 221 169 237 225 136 146 195 219 255 265 261 253 189 186 221 199 171 180 192 199 198 195 207 207 202 208 203 197 193 183 179 173 170 172 172 174 175 169 164 156 147 137 127 121 118 114 111 108 104 101 99 98 95 80 67 64 49 37 34 26 20 16 11 8 5 1 360 358 357 356 354
162 172 205 244 261 188 220 237 183 167 159 155 178 193 195 181 150 251 251 185 150 189 184 223 260 263 253 204 205 225 186 175 187 187 188 196 196 204 212 211 212 205 197 196 186 181 180 177 177 177 180 182 180 179 174 166 156 140 127 118 114 111 109 107 105 102 97 93 81 64 59 45 28 24 17 12 9 4 3 0 357 354 351 351 350 348
112 112 194 245 226 213 230 324 46 158 137 138 172 172 162 150 135 192 234 218 177 245 145 200 261 259 243 247 241 221 182 174 183 179 180 196 201 205 213 214 213 208 202 198 188 186 184 183 184 183 184 187 186 183 180 176 170 158 143 132 126 120 114 108 102 98 89 81 70 54 43 30 17 11 6 3 359 356 355 352 350 349 345 344 342 340
76 102 189 268 291 295 319 4 7 19 89 136 260 141 145 173 151 167 205 176 155 253 221 221 255 247 249 289 284 236 171 157 176 187 184 194 206 211 214 214 213 208 204 199 191 186 185 187 189 187 189 192 189 185 184 181 177 171 166 163 153 137 123 111 99 93 83 66 50 33 22 14 7 2 359 356 353 350 348 345 344 342 340 339 337 335
198 139 148 228 286 298 304 334 350 349 33 175 253 281 141 133 111 101 140 111 122 233 208 228 253 242 261 330 352 45 135 158 198 208 192 199 212 216 217 215 211 203 196 194 190 185 183 186 188 190 195 197 192 189 189 187 187 186 184 181 172 156 141 127 107 88 64 31 14 4 360 358 355 354 353 351 348 345 341 340 338 338 337 335 333 331
187 176 158 186 229 244 241 226 230 249 231 178 234 250 232 136 129 119 117 137 199 218 191 221 246 243 352 335 278 264 217 208 246 252 237 235 229 224 226 222 210 198 191 189 186 182 180 183 190 195 199 199 194 192 192 192 193 195 195 194 186 176 167 163 150 41 1 350 349 347 346 346 345 345 346 345 343 340 337 336 335 334 334 333 331 329
128 193 206 205 227 239 223 211 207 148 146 204 234 222 225 204 150 125 118 164 200 212 221 234 233 237 272 251 217 227 239 237 252 257 246 243 237 230 231 226 212 203 196 185 175 177 180 186 194 196 196 197 195 192 195 196 197 199 202 203 200 197 197 208 250 318 333 333 335 335 334 335 335 336 337 337 336 334 332 332 331 331 331 330 328 326
114 223 229 210 236 248 143 164 190 134 157 204 229 244 244 227 151 134 169 205 176 176 246 245 228 215 252 253 220 202 223 238 249 246 238 239 237 224 208 202 202 199 189 173 169 178 186 191 197 196 195 196 194 196 199 202 205 206 208 211 212 217 236 261 279 302 319 321 323 325 325 327 328 329 331 331 329 328 327 327 327 327 327 326 325 324
132 226 218 170 233 255 105 134 173 148 175 213 221 238 250 247 193 154 202 222 199 208 246 253 242 229 246 257 241 210 217 231 243 242 231 226 218 190 176 185 193 189 179 178 184 190 191 193 196 197 198 197 197 201 205 208 211 213 217 225 231 241 260 271 275 288 304 310 313 318 320 322 323 325 326 326 325 325 324 323 323 322 322 322 321 321
136 218 186 147 227 267 113 163 188 164 190 230 233 234 241 246 212 184 220 232 219 226 248 257 259 258 256 249 241 246 244 232 229 212 168 174 183 174 177 187 187 184 183 187 195 199 197 200 201 201 203 203 205 209 213 215 218 221 227 235 241 246 254 257 259 272 288 300 309 314 315 317 318 320 322 322 322 322 321 320 320 319 319 318 317 317
111 190 145 112 203 294 304 181 190 162 180 232 256 252 241 217 212 225 233 236 229 239 248 252 261 268 266 243 217 241 238 174 171 178 179 187 183 172 182 195 191 191 196 199 204 208 209 210 209 209 210 212 215 219 221 224 227 231 235 241 243 244 243 241 246 263 285 299 308 312 313 315 316 318 319 318 317 317 317 317 317 316 315 315 314 314
114 176 33 79 132 278 299 176 204 35 36 281 270 261 244 216 229 240 231 208 216 232 243 247 250 259 265 262 172 190 191 178 187 194 198 209 197 183 190 199 200 201 207 213 217 217 219 220 221 224 225 226 228 231 233 236 238 240 239 238 232 224 218 224 248 278 297 306 311 313 314 314 314 313 314 314 315 315 315 314 313 314 314 313 313 313
131 143 121 114 161 268 295 186 139 43 16 282 264 246 232 232 240 247 248 233 224 212 214 230 233 242 254 265 252 238 225 215 209 196 189 203 205 203 204 203 207 214 215 218 223 222 221 225 229 233 238 243 246 247 245 240 234 223 206 192 182 185 212 256 287 299 306 312 314 314 315 312 311 310 310 312 313 312 312 312 312 313 313 312 312 311
133 137 159 159 150 249 271 51 72 8 257 257 251 169 193 222 231 233 241 243 228 199 206 233 242 241 233 216 225 235 231 213 197 191 198 198 186 195 213 214 212 219 223 222 221 215 207 208 210 212 214 219 219 214 206 195 181 170 166 170 188 227 269 288 296 302 308 311 312 311 310 308 308 309 309 311 311 311 311 311 311 311 311 311 310 308
147 138 156 149 122 194 229 80 116 242 243 269 330 166 191 215 220 224 247 253 237 220 221 237 245 234 220 221 226 225 203 168 161 188 214 214 194 188 210 231 226 220 223 223 217 208 200 192 186 182 177 173 172 172 172 170 168 170 179 197 232 261 282 290 296 303 305 306 306 304 304 306 308 309 310 311 311 310 310 310 311 311 312 310 308 306
153 151 154 148 144 161 147 165 218 249 290 303 285 238 180 228 193 202 282 266 242 222 209 220 237 235 226 230 227 178 147 132 139 227 238 233 212 190 200 228 226 211 211 211 204 202 200 194 188 182 173 169 170 171 173 174 177 185 201 223 249 270 285 292 298 303 303 304 305 304 305 308 309 311 311 312 311 310 311 312 312 312 312 310 307 305
151 151 149 185 200 176 170 215 246 326 313 284 267 203 180 210 165 152 242 261 246 212 182 194 226 231 215 201 185 153 115 92 16 273 251 241 228 206 208 222 222 217 222 223 215 209 205 198 189 182 175 170 171 172 174 178 186 199 215 237 264 281 292 298 303 306 307 307 306 305 308 310 311 312 312 311 311 312 313 314 313 313 312 309 306 305
159 173 182 207 222 121 133 239 272 291 264 261 262 234 199 185 154 147 188 270 268 220 185 184 198 194 170 169 182 149 95 107 264 261 236 234 237 218 218 230 231 228 230 227 216 206 197 188 182 178 175 172 171 174 178 185 197 216 240 267 285 294 302 307 310 309 307 306 305 307 311 313 312 311 311 311 313 314 315 314 313 312 311 308 305 303
121 143 151 181 218 143 161 224 234 235 249 253 251 252 207 151 133 103 66 288 263 213 184 171 168 174 176 181 178 146 129 192 247 254 224 225 234 220 215 231 234 233 233 224 213 202 189 180 176 174 175 176 176 180 188 201 221 247 269 281 289 297 305 308 308 306 304 304 306 309 313 314 313 312 312 314 315 315 315 314 313 312 310 306 303 300
139 129 150 188 218 210 209 231 234 239 255 245 221 218 191 133 93 82 24 271 252 192 175 165 169 188 192 181 167 159 174 203 232 240 213 208 225 226 217 222 228 230 229 220 211 200 187 179 176 176 178 182 186 191 203 220 240 259 272 280 289 299 305 304 303 302 302 304 308 312 316 316 315 314 315 316 317 317 315 314 313 312 309 305 301 299
144 185 195 210 226 224 219 230 255 264 250 217 196 192 175 105 70 110 226 239 201 185 189 178 184 195 186 174 175 188 207 217 221 218 189 180 208 230 226 225 231 243 237 218 203 191 182 181 183 184 185 190 195 203 217 231 247 262 272 284 296 301 301 299 298 299 301 306 312 317 319 317 316 316 318 319 319 317 314 314 313 310 306 304 301 299
154 173 226 218 222 227 225 228 259 275 236 179 165 193 164 127 148 221 225 202 170 186 197 193 200 200 184 184 195 206 221 226 221 216 200 188 201 224 227 221 219 222 212 197 189 186 182 181 184 187 189 195 203 213 226 238 255 267 277 289 297 297 296 295 297 300 304 311 317 319 319 318 318 319 320 321 320 317 314 314 312 307 304 302 301 299
164 158 219 226 195 179 212 217 229 259 221 148 130 101 212 189 209 219 218 213 188 182 187 199 210 206 192 197 209 217 226 230 224 225 227 217 216 226 227 215 202 195 188 182 186 190 188 186 187 190 194 200 208 221 234 247 261 270 281 292 296 295 294 296 299 304 309 315 319 319 319 319 320 321 322 322 322 317 314 312 309 305 303 302 301 300
181 165 194 225 187 155 190 213 213 232 195 151 149 174 208 211 211 181 177 214 213 186 184 202 218 213 198 202 215 220 225 232 229 226 230 231 228 230 229 219 207 199 195 193 195 194 192 190 190 191 197 205 213 228 240 250 262 273 286 296 295 293 295 299 303 308 313 318 319 319 320 321 322 323 323 324 323 317 312 310 307 304 303 301 300 299
221 192 177 199 199 173 188 216 224 212 168 176 187 194 204 218 216 170 167 201 216 202 189 195 221 222 205 205 216 218 221 229 229 223 223 225 224 225 226 222 212 205 202 200 197 195 194 195 194 193 198 208 219 232 242 250 265 280 291 295 294 294 298 302 306 310 315 319 320 320 321 321 323 325 325 325 323 316 310 308 306 303 302 301 300 299
237 191 153 171 230 220 213 219 218 199 175 199 212 212 210 220 208 170 182 218 226 212 195 193 214 220 207 205 214 221 226 229 228 228 225 222 225 224 221 218 210 204 201 198 194 193 193 194 195 196 201 211 223 234 243 255 274 288 292 291 292 295 299 303 308 312 316 319 319 321 322 321 323 326 326 324 321 314 309 307 304 301 301 301 300 299
268 163 147 198 220 220 241 216 198 197 195 194 209 225 239 245 229 186 189 220 228 217 208 208 217 220 209 200 204 219 230 228 225 231 230 221 225 223 213 207 204 201 202 201 197 194 192 191 194 198 204 214 224 234 247 266 285 292 292 290 290 294 297 302 308 312 315 318 319 320 322 323 324 326 325 321 319 314 310 308 304 300 299 299 300 301
255 145 149 215 220 211 238 235 215 215 232 220 213 222 234 245 244 223 208 221 231 231 225 219 216 217 215 207 205 216 230 231 224 227 229 222 222 219 208 207 206 204 205 203 197 194 193 195 199 205 211 218 226 237 255 277 293 292 289 289 289 291 296 302 308 312 314 317 318 320 322 323 323 324 321 318 316 313 309 308 306 301 299 300 301 299
132 171 178 197 211 237 267 250 230 252 286 268 246 235 230 231 237 236 229 228 233 240 243 236 223 217 219 221 215 212 225 234 228 221 223 222 217 213 211 211 210 207 204 200 197 197 199 202 206 210 217 224 232 245 264 282 291 287 284 285 287 290 296 304 309 311 314 316 318 319 322 323 323 322 319 315 314 311 309 309 306 301 299 301 301 297
153 229 199 151 189 236 242 231 210 195 249 252 246 240 235 226 223 230 237 237 234 236 240 242 241 234 229 232 230 216 221 235 231 218 221 221 212 211 213 211 210 207 202 197 196 199 203 207 211 215 221 229 239 254 271 283 285 280 276 277 281 288 296 306 310 310 313 316 318 320 322 323 322 321 317 314 312 311 311 312 310 303 297 297 300 299
210 226 209 181 214 236 236 226 206 198 230 248 250 248 240 219 204 214 229 234 233 233 231 231 240 245 241 239 234 221 217 233 229 215 215 222 217 215 215 212 207 202 198 196 195 197 203 210 216 220 226 235 249 263 277 285 283 273 268 271 277 286 297 306 307 306 310 315 318 321 323 321 320 319 315 312 311 310 310 313 317 318 313 305 301 303